Terminal Aerodrome Forecast
Issued by NWS

Home | Current Version | Previous Version | Text Only | Print | Product List | Glossary On
Versions: 1 2 3 4 5 6 7 8 9 10 11 12 13 14 15 16 17
000
FTUS43 KAPX 241120
TAFTVC
TAF
KTVC 241120Z 2412/2512 00000KT P6SM OVC100
     FM241400 21006KT P6SM BKN120
     FM241700 22010KT P6SM BKN110
     FM242100 22005KT 6SM -RA OVC060
     FM250100 14004KT 4SM RA OVC028
     FM250500 12011KT 2SM RA OVC009=

USA.gov is the U.S. government's official web portal to all federal, state and local government web resources and services.